Location: Danville Conservation Area
(38.8674°N, 91.5143°W)
Time: 02:22:08
(UTC-06:00)

X-37B - Pass Details

Date: 05 December 2021
Orbit: 331 x 339 km, 45.0° (Epoch: 27 January)

Event Time Altitude Azimuth Distance (km) Brightness Sun altitude
Rises 18:09:57 0° 226° (SW) 2,086 5.4 -16.3°
Reaches altitude 10° 18:12:01 10° 217° (SW) 1,253 3.9 -16.7°
Enters shadow 18:14:36 37° 151° (SSE) 530 1.1 -17.2°
